Group_ship,Cruise,JD_GMT,Date_DDMMYYYY,TIME_HH:MM:SS,Lat_dec_degree,Long_dec_degree,xCO2eq_ppm,xCO2a_ppm,Pres_Equi_hPa,Pres_sealevel_hPa,EqTemp_C,SST(TSG)_C,Sal(TSG)_Permil,Water_flow_l/min,Gasflow_IR_ml/min,Temp_IR_C,Pres_IR_hPa,Ship_heading_true_degree,Ship_speed_knot,Wind_dir_rel_degree,Wind_speed_rel_m/s,fCO2W@SST_uatm,Qcflag_water,fCO2a_uatm,Qcflag_air,dfCO2_uatm,Fluoro_ug/l,Wind_speed_true_m/s,Wind_dir_true_degree,Air_temp_C,Oxygen
AOML_Explorer,Ex0731N,211.015,30072007,0:21:40,40.109,-73.432,423.44,-9.00,1013.27,1010.80,23.36,23.00,31.837,1.782,101.234,30.522,1013.272,138.700,19.000,342.000,11.323,404.38,2,-9.00,9,-9.00,0.18,3.98,62.39,22.88,255.50
AOML_Explorer,Ex0731N,211.017,30072007,0:24:13,40.099,-73.421,424.80,-9.00,1013.30,1010.90,23.29,23.02,31.805,1.786,101.265,30.569,1013.303,138.400,19.000,345.000,10.809,407.21,2,-9.00,9,-9.00,0.16,3.16,59.92,22.88,256.71
AOML_Explorer,Ex0731N,211.019,30072007,0:26:46,40.089,-73.409,426.25,-9.00,1013.35,1011.10,23.14,22.70,31.797,1.765,100.709,30.606,1013.351,138.300,19.000,350.000,11.323,405.88,2,-9.00,9,-9.00,0.19,2.62,80.08,22.78,258.17
AOML_Explorer,Ex0731N,211.020,30072007,0:29:19,40.079,-73.397,426.59,-9.00,1013.42,1011.20,22.99,22.87,31.692,1.758,101.220,30.645,1013.424,138.400,19.000,354.000,11.838,411.64,2,-9.00,9,-9.00,0.16,2.54,101.67,22.69,260.29
AOML_Explorer,Ex0731N,211.022,30072007,0:31:52,40.069,-73.386,425.69,-9.00,1013.35,1011.10,22.73,22.10,31.894,1.759,101.203,30.683,1013.355,138.400,19.000,353.000,12.353,402.51,2,-9.00,9,-9.00,0.17,3.08,102.94,22.47,261.27
AOML_Explorer,Ex0731N,211.024,30072007,0:34:25,40.059,-73.374,421.93,-9.00,1013.31,1011.10,22.71,22.41,31.760,1.759,101.249,30.721,1013.314,138.500,19.100,353.000,11.323,404.46,2,-9.00,9,-9.00,0.18,2.25,88.53,22.41,262.03
AOML_Explorer,Ex0731N,211.026,30072007,0:36:58,40.049,-73.363,418.14,-9.00,1013.36,1011.10,22.51,22.45,31.666,1.749,101.118,30.757,1013.364,138.300,19.100,357.000,11.323,404.74,2,-9.00,9,-9.00,0.18,1.82,107.10,22.43,263.66
AOML_Explorer,Ex0731N,211.027,30072007,0:39:31,40.039,-73.351,417.07,-9.00,1013.37,1011.10,22.39,22.31,31.730,1.790,101.256,30.790,1013.370,138.400,19.100,358.000,10.294,403.52,2,-9.00,9,-9.00,0.20,0.87,85.82,22.42,264.32
AOML_Explorer,Ex0731N,211.029,30072007,0:42:04,40.029,-73.340,417.18,-9.00,1013.38,1011.20,22.47,22.28,31.685,1.777,101.193,30.824,1013.377,138.800,19.000,359.000,10.294,401.71,2,-9.00,9,-9.00,0.21,0.75,95.86,22.35,265.02
AOML_Explorer,Ex0731N,211.031,30072007,0:44:37,40.019,-73.328,419.09,-9.00,1013.43,1011.20,22.39,22.00,31.732,1.764,101.032,30.854,1013.426,137.200,19.000,359.000,10.294,400.36,2,-9.00,9,-9.00,0.22,0.75,98.97,22.3,265.51
AOML_Explorer,Ex0731N,211.033,30072007,0:47:10,40.009,-73.316,422.60,-9.00,1013.48,1011.20,22.44,21.90,31.651,1.759,101.131,30.886,1013.477,137.700,19.000,357.000,9.265,401.22,2,-9.00,9,-9.00,0.22,0.89,16.61,22.32,266.76
AOML_Explorer,Ex0731N,211.035,30072007,0:49:43,39.999,-73.304,426.14,-9.00,1013.59,1011.20,22.15,22.15,31.578,1.789,100.989,30.916,1013.591,137.300,19.000,356.000,10.294,413.79,2,-9.00,9,-9.00,0.22,1.17,74.94,22.59,267.34
AOML_Explorer,Ex0731N,211.036,30072007,0:52:16,39.990,-73.292,426.20,-9.00,1013.57,1011.30,22.04,22.43,31.601,1.781,100.961,30.945,1013.567,136.200,18.900,353.000,11.323,420.76,2,-9.00,9,-9.00,0.23,2.26,88.25,22.58,267.00
AOML_Explorer,Ex0731N,211.038,30072007,0:54:49,39.980,-73.280,425.66,-9.00,1013.52,1011.20,22.30,22.37,31.622,1.784,100.996,30.972,1013.522,134.300,18.800,349.000,10.809,414.35,2,-9.00,9,-9.00,0.24,2.56,65.14,22.47,267.81
AOML_Explorer,Ex0731N,211.040,30072007,0:57:22,39.971,-73.268,427.87,-9.00,1013.57,1011.30,22.55,22.48,31.510,1.759,100.996,31.001,1013.572,134.700,18.800,353.000,11.323,414.13,2,-9.00,9,-9.00,0.28,2.31,88.42,22.61,269.06
AOML_Explorer,Ex0731N,211.042,30072007,0:59:55,39.962,-73.256,429.71,-9.00,1013.57,1011.30,22.53,22.27,31.403,1.779,101.006,31.030,1013.565,134.500,18.700,349.000,11.838,412.81,2,-9.00,9,-9.00,0.38,3.23,82.70,22.75,271.25
AOML_Explorer,Ex0731N,211.057,30072007,1:21:40,39.882,-73.150,417.48,-9.00,1013.45,1011.10,23.15,22.98,31.377,1.765,100.730,31.276,1013.446,134.600,19.200,346.000,11.838,402.01,2,-9.00,9,-9.00,0.23,3.38,73.94,22.95,270.21
AOML_Explorer,Ex0731N,211.058,30072007,1:24:13,39.873,-73.138,420.69,-9.00,1013.52,1011.10,23.02,22.76,31.445,1.756,100.766,31.298,1013.516,134.600,19.200,348.000,11.838,403.70,2,-9.00,9,-9.00,0.23,3.10,78.97,22.87,269.41
AOML_Explorer,Ex0731N,211.060,30072007,1:26:46,39.863,-73.125,421.73,-9.00,1013.37,1011.00,22.90,23.00,31.433,1.802,100.933,31.316,1013.373,134.400,19.100,346.000,12.868,410.61,2,-9.00,9,-9.00,0.20,4.21,84.19,22.94,269.55
AOML_Explorer,Ex0731N,211.062,30072007,1:29:19,39.854,-73.113,422.72,-9.00,1013.44,1011.20,22.85,22.97,31.477,1.765,100.873,31.336,1013.444,134.200,19.000,349.000,12.868,412.05,2,-9.00,9,-9.00,0.18,3.84,93.52,22.98,270.15
AOML_Explorer,Ex0731N,211.064,30072007,1:31:52,39.845,-73.100,426.65,-9.00,1013.47,1011.00,22.96,22.72,31.496,1.783,100.820,31.354,1013.466,134.400,18.900,345.000,12.353,409.73,2,-9.00,9,-9.00,0.18,3.93,79.18,22.99,270.44
AOML_Explorer,Ex0731N,211.066,30072007,1:34:25,39.836,-73.088,432.69,-9.00,1013.51,1011.10,22.90,22.83,31.435,1.793,100.811,31.369,1013.513,134.400,19.000,344.000,12.353,418.47,2,-9.00,9,-9.00,0.19,4.05,76.93,23.14,271.95
AOML_Explorer,Ex0731N,211.067,30072007,1:36:58,39.826,-73.075,438.02,-9.00,1013.56,1011.20,22.80,23.01,31.434,1.782,100.823,31.383,1013.561,134.300,19.000,344.000,12.353,428.68,2,-9.00,9,-9.00,0.18,4.04,76.77,23.21,271.72
AOML_Explorer,Ex0731N,211.069,30072007,1:39:31,39.817,-73.063,441.40,-9.00,1013.58,1011.20,22.92,23.25,31.409,1.781,100.766,31.396,1013.578,134.400,19.000,344.000,11.838,433.89,2,-9.00,9,-9.00,0.18,3.68,71.29,23.33,270.44
AOML_Explorer,Ex0731N,211.071,30072007,1:42:04,39.808,-73.051,442.25,-9.00,1013.65,1011.30,23.09,23.36,31.375,1.748,100.873,31.409,1013.653,134.200,18.800,348.000,12.353,433.58,2,-9.00,9,-9.00,0.21,3.56,86.52,23.36,268.74
AOML_Explorer,Ex0731N,211.073,30072007,1:44:37,39.798,-73.038,438.90,-9.00,1013.57,1011.30,23.23,23.75,31.368,1.777,101.290,31.423,1013.569,135.900,18.900,348.000,11.838,434.49,2,-9.00,9,-9.00,0.25,3.17,83.66,23.51,266.80
AOML_Explorer,Ex0731N,211.074,30072007,1:47:10,39.789,-73.026,431.95,-9.00,1013.57,1011.10,23.44,23.82,31.375,1.772,100.816,31.439,1013.570,134.900,18.700,341.000,11.323,425.02,2,-9.00,9,-9.00,0.31,3.85,62.29,23.54,265.19
AOML_Explorer,Ex0731N,211.076,30072007,1:49:43,39.779,-73.014,427.19,-9.00,1013.59,1011.10,23.60,23.69,31.331,1.787,100.571,31.453,1013.591,135.300,18.900,340.000,10.809,415.54,2,-9.00,9,-9.00,0.34,3.72,53.89,23.65,264.66
AOML_Explorer,Ex0731N,211.078,30072007,1:52:16,39.770,-73.002,421.18,-9.00,1013.60,1011.10,23.71,23.93,31.292,1.784,100.617,31.466,1013.598,135.200,18.800,342.000,10.809,411.70,2,-9.00,9,-9.00,0.32,3.41,56.98,23.71,264.68
AOML_Explorer,Ex0731N,211.080,30072007,1:54:49,39.761,-72.990,417.06,-9.00,1013.58,1011.10,23.69,24.06,31.309,1.777,100.708,31.478,1013.584,135.500,18.700,343.000,11.323,410.02,2,-9.00,9,-9.00,0.33,3.56,65.76,23.76,264.27
AOML_Explorer,Ex0731N,211.082,30072007,1:57:22,39.752,-72.978,413.69,-9.00,1013.60,1011.00,23.83,24.10,31.333,1.770,100.643,31.492,1013.604,135.800,18.700,344.000,11.838,405.00,2,-9.00,9,-9.00,0.27,3.75,73.60,23.71,263.95
AOML_Explorer,Ex0731N,211.083,30072007,1:59:55,39.742,-72.966,411.59,-9.00,1013.58,1011.10,23.93,24.25,31.356,1.786,100.505,31.505,1013.581,135.600,19.000,343.000,11.323,403.84,2,-9.00,9,-9.00,0.24,3.54,64.44,23.73,263.18
AOML_Explorer,Ex0731N,211.098,30072007,2:21:40,39.661,-72.862,423.00,-9.00,1013.70,1011.40,24.38,24.46,31.409,1.763,100.554,31.650,1013.699,135.600,19.100,355.000,11.838,410.54,2,-9.00,9,-9.00,0.15,2.26,106.07,23.77,256.26
AOML_Explorer,Ex0731N,211.100,30072007,2:24:13,39.651,-72.849,425.80,-9.00,1013.72,1011.50,24.37,24.37,31.431,1.750,100.497,31.658,1013.722,132.400,19.100,355.000,11.838,412.03,2,-9.00,9,-9.00,0.14,2.31,100.08,23.8,255.48
AOML_Explorer,Ex0731N,211.102,30072007,2:26:46,39.642,-72.836,428.32,-9.00,1013.77,1011.50,24.35,24.35,31.422,1.763,100.558,31.666,1013.766,132.600,19.200,356.000,11.323,414.64,2,-9.00,9,-9.00,0.14,1.67,102.22,23.78,255.17
AOML_Explorer,Ex0731N,211.104,30072007,2:29:19,39.633,-72.823,430.42,-9.00,1013.77,1011.50,24.26,24.35,31.445,1.783,100.644,31.674,1013.768,132.000,19.300,357.000,11.838,418.12,2,-9.00,9,-9.00,0.14,2.05,112.07,23.81,254.83
AOML_Explorer,Ex0731N,211.105,30072007,2:31:52,39.624,-72.810,431.78,-9.00,1013.77,1011.70,24.29,24.43,31.437,1.766,100.595,31.680,1013.770,130.000,19.200,359.000,12.353,420.39,2,-9.00,9,-9.00,0.12,2.53,124.80,23.81,254.74
AOML_Explorer,Ex0731N,211.107,30072007,2:34:25,39.616,-72.796,433.48,-9.00,1013.79,1011.70,24.27,24.47,31.460,1.743,100.562,31.683,1013.790,129.900,19.200,358.000,12.353,423.05,2,-9.00,9,-9.00,0.12,2.55,119.10,23.78,254.40
AOML_Explorer,Ex0731N,211.109,30072007,2:36:58,39.607,-72.783,434.62,-9.00,1013.80,1011.70,24.33,24.49,31.479,1.730,103.631,31.690,1013.799,130.000,19.300,0.000,11.838,423.38,2,-9.00,9,-9.00,0.11,1.95,129.24,23.74,254.06
AOML_Explorer,Ex0731N,211.111,30072007,2:39:31,39.598,-72.769,436.80,-9.00,1013.92,1011.70,24.38,24.50,31.479,1.765,102.711,31.693,1013.916,131.800,19.400,1.000,11.838,424.83,2,-9.00,9,-9.00,0.11,1.90,139.11,23.75,253.83
AOML_Explorer,Ex0731N,211.113,30072007,2:42:04,39.588,-72.757,438.60,-9.00,1013.98,1011.80,24.38,24.50,31.493,1.787,102.504,31.698,1013.976,134.800,19.400,3.000,11.838,426.66,2,-9.00,9,-9.00,0.11,1.96,151.85,23.84,253.21
AOML_Explorer,Ex0731N,211.114,30072007,2:44:37,39.579,-72.744,439.80,-9.00,1014.06,1011.90,24.39,24.49,31.491,1.746,101.921,31.701,1014.061,134.200,19.100,4.000,11.323,427.51,2,-9.00,9,-9.00,0.10,1.70,162.14,23.92,252.63
AOML_Explorer,Ex0731N,211.116,30072007,2:47:10,39.569,-72.732,440.61,-9.00,1013.97,1011.90,24.42,24.53,31.458,1.745,101.725,31.704,1013.970,134.500,19.100,4.000,12.868,428.34,2,-9.00,9,-9.00,0.10,3.16,150.65,23.97,252.70
AOML_Explorer,Ex0731N,211.118,30072007,2:49:43,39.560,-72.719,441.03,-9.00,1013.97,1011.90,24.41,24.51,31.427,1.757,101.873,31.711,1013.965,134.600,19.000,4.000,13.382,428.67,2,-9.00,9,-9.00,0.11,3.72,149.13,23.96,252.91
AOML_Explorer,Ex0731N,211.120,30072007,2:52:16,39.550,-72.707,440.20,-9.00,1013.96,1011.90,24.40,24.49,31.408,1.733,101.786,31.713,1013.957,134.000,19.000,1.000,12.353,427.50,2,-9.00,9,-9.00,0.10,2.61,139.69,24,252.73
AOML_Explorer,Ex0731N,211.121,30072007,2:54:49,39.541,-72.695,438.58,-9.00,1014.02,1012.00,24.37,24.36,31.390,1.748,101.528,31.721,1014.018,134.300,19.200,3.000,12.353,424.23,2,-9.00,9,-9.00,0.11,2.62,150.93,24.02,252.89
AOML_Explorer,Ex0731N,211.123,30072007,2:57:22,39.532,-72.682,436.39,-9.00,1014.11,1012.00,24.37,24.46,31.367,1.732,102.313,31.723,1014.110,134.100,19.200,3.000,12.353,424.11,2,-9.00,9,-9.00,0.10,2.59,150.33,24.05,253.02
AOML_Explorer,Ex0731N,211.125,30072007,2:59:55,39.522,-72.670,433.17,-9.00,1014.13,1012.00,24.34,24.61,31.348,1.771,102.643,31.729,1014.131,134.000,19.200,4.000,12.353,424.12,2,-9.00,9,-9.00,0.10,2.67,155.26,24.01,252.87
AOML_Explorer,Ex0731N,211.140,30072007,3:21:40,39.440,-72.563,428.10,-9.00,1014.01,1012.00,24.54,24.76,31.650,1.757,100.790,31.825,1014.013,135.200,19.900,1.000,12.868,418.02,2,-9.00,9,-9.00,0.09,2.72,140.07,24.43,252.48
AOML_Explorer,Ex0731N,211.142,30072007,3:24:13,39.430,-72.550,426.47,-9.00,1013.98,1012.00,24.64,24.78,31.602,1.759,100.853,31.829,1013.985,135.500,19.800,2.000,12.868,414.98,2,-9.00,9,-9.00,0.09,2.79,143.63,24.45,252.94
AOML_Explorer,Ex0731N,211.144,30072007,3:26:46,39.420,-72.537,426.84,-9.00,1014.02,1011.90,24.60,24.68,31.577,1.786,100.871,31.833,1014.024,135.300,19.700,3.000,12.353,414.32,2,-9.00,9,-9.00,0.08,2.39,150.18,24.5,253.03
AOML_Explorer,Ex0731N,211.145,30072007,3:29:19,39.410,-72.525,427.30,-9.00,1013.96,1012.00,24.65,24.79,31.558,1.739,100.764,31.834,1013.958,135.200,19.600,6.000,12.353,415.71,2,-9.00,9,-9.00,0.09,2.60,164.63,24.51,254.56
AOML_Explorer,Ex0731N,211.147,30072007,3:31:52,39.400,-72.512,428.69,-9.00,1014.06,1012.00,24.60,24.88,31.558,1.759,100.851,31.836,1014.059,135.400,19.600,7.000,12.353,419.54,2,-9.00,9,-9.00,0.09,2.70,169.24,24.51,253.86
AOML_Explorer,Ex0731N,211.149,30072007,3:34:25,39.390,-72.500,429.68,-9.00,1014.03,1012.00,24.67,24.90,31.576,1.740,100.971,31.840,1014.025,135.600,19.600,7.000,11.838,419.53,2,-9.00,9,-9.00,0.08,2.25,174.75,24.5,253.34
AOML_Explorer,Ex0731N,211.151,30072007,3:36:58,39.380,-72.488,430.98,-9.00,1013.99,1012.00,24.74,24.84,31.629,1.776,100.849,31.845,1013.991,135.700,19.500,8.000,12.353,418.54,2,-9.00,9,-9.00,0.08,2.82,171.92,24.53,253.29
AOML_Explorer,Ex0731N,211.152,30072007,3:39:31,39.370,-72.475,432.57,-9.00,1014.03,1012.00,24.80,24.87,31.628,1.752,101.019,31.843,1014.031,135.900,19.400,9.000,12.868,419.54,2,-9.00,9,-9.00,0.09,3.40,169.87,24.55,253.29
AOML_Explorer,Ex0731N,211.154,30072007,3:42:04,39.361,-72.463,433.65,-9.00,1014.05,1012.10,24.69,24.84,31.842,1.756,100.852,31.843,1014.045,135.800,19.100,8.000,12.868,422.09,2,-9.00,9,-9.00,0.09,3.43,166.04,24.6,252.99
AOML_Explorer,Ex0731N,211.156,30072007,3:44:37,39.351,-72.451,433.37,-9.00,1014.05,1012.00,24.78,24.85,32.312,1.727,100.894,31.842,1014.049,135.400,19.000,10.000,12.868,420.46,2,-9.00,9,-9.00,0.09,3.72,171.08,24.65,253.84
AOML_Explorer,Ex0731N,211.158,30072007,3:47:10,39.342,-72.439,432.66,-9.00,1013.97,1012.10,24.57,24.65,33.045,1.727,100.722,31.844,1013.973,135.700,18.600,14.000,13.382,420.09,2,-9.00,9,-9.00,0.09,4.71,178.41,24.63,254.34
AOML_Explorer,Ex0731N,211.160,30072007,3:49:43,39.332,-72.428,426.53,-9.00,1014.10,1012.20,24.56,24.69,33.459,1.733,100.801,31.847,1014.097,135.600,18.600,14.000,13.897,415.11,2,-9.00,9,-9.00,0.09,5.18,175.55,24.66,255.27
AOML_Explorer,Ex0731N,211.161,30072007,3:52:16,39.323,-72.416,417.43,-9.00,1013.99,1012.10,24.50,24.69,33.634,1.755,100.814,31.845,1013.995,135.000,18.700,12.000,13.897,407.08,2,-9.00,9,-9.00,0.08,4.96,170.60,24.67,255.85
AOML_Explorer,Ex0731N,211.163,30072007,3:54:49,39.314,-72.404,410.92,-9.00,1013.92,1012.10,24.56,24.48,33.954,1.746,100.854,31.846,1013.915,135.300,18.700,10.000,13.897,396.27,2,-9.00,9,-9.00,0.08,4.78,165.97,24.72,255.99
AOML_Explorer,Ex0731N,211.165,30072007,3:57:22,39.304,-72.392,407.62,-9.00,1013.89,1012.00,24.48,24.99,33.906,1.757,100.940,31.845,1013.891,135.100,18.700,11.000,13.382,402.81,2,-9.00,9,-9.00,0.07,4.38,170.76,24.73,255.17
AOML_Explorer,Ex0731N,211.167,30072007,3:59:55,39.295,-72.380,403.81,-9.00,1013.90,1012.00,24.68,25.15,33.911,1.742,100.939,31.849,1013.896,135.200,18.700,9.000,13.897,398.16,2,-9.00,9,-9.00,0.08,4.68,162.47,24.66,254.58
AOML_Explorer,Ex0731N,211.182,30072007,4:21:40,39.215,-72.277,401.42,-9.00,1013.74,1011.90,24.80,25.30,34.745,1.736,101.497,31.916,1013.740,134.100,18.700,9.000,13.897,396.10,2,-9.00,9,-9.00,0.05,4.72,165.12,24.91,249.36
AOML_Explorer,Ex0731N,211.183,30072007,4:24:13,39.206,-72.265,401.43,-9.00,1013.81,1011.90,25.01,25.45,34.860,1.761,100.702,31.919,1013.815,134.500,18.900,10.000,14.412,395.07,2,-9.00,9,-9.00,0.06,5.25,166.40,24.91,247.91
AOML_Explorer,Ex0731N,211.185,30072007,4:26:46,39.197,-72.253,402.11,-9.00,1013.84,1012.00,25.16,25.36,34.841,1.724,100.799,31.917,1013.841,134.500,18.900,11.000,14.412,391.74,2,-9.00,9,-9.00,0.05,5.33,168.92,24.95,247.09
AOML_Explorer,Ex0731N,211.187,30072007,4:29:19,39.187,-72.241,403.37,-9.00,1013.73,1011.90,25.24,25.42,34.752,1.705,100.496,31.915,1013.725,134.500,18.900,12.000,14.412,392.60,2,-9.00,9,-9.00,0.05,5.39,171.05,24.88,246.43
AOML_Explorer,Ex0731N,211.189,30072007,4:31:52,39.178,-72.228,404.04,-9.00,1013.74,1011.90,25.17,25.31,34.772,1.682,100.548,31.911,1013.735,134.100,19.000,10.000,14.412,392.73,2,-9.00,9,-9.00,0.05,5.21,166.27,24.95,246.48
AOML_Explorer,Ex0731N,211.191,30072007,4:34:25,39.169,-72.216,403.96,-9.00,1013.76,1011.90,25.25,25.36,34.661,1.672,100.771,31.909,1013.758,134.200,18.900,8.000,14.412,392.12,2,-9.00,9,-9.00,0.05,5.04,160.80,24.97,246.91
AOML_Explorer,Ex0731N,211.192,30072007,4:36:58,39.159,-72.204,404.53,-9.00,1013.80,1011.90,25.18,25.44,34.641,1.680,100.713,31.911,1013.805,134.400,19.000,8.000,14.412,394.99,2,-9.00,9,-9.00,0.05,5.02,161.38,24.96,247.19
AOML_Explorer,Ex0731N,211.194,30072007,4:39:31,39.150,-72.191,404.39,-9.00,1013.80,1011.90,25.20,25.39,34.588,1.697,100.747,31.907,1013.797,134.300,19.000,7.000,14.412,393.88,2,-9.00,9,-9.00,0.06,4.93,158.54,25.01,247.89
AOML_Explorer,Ex0731N,211.196,30072007,4:42:04,39.140,-72.179,404.64,-9.00,1013.76,1011.90,25.23,25.45,34.571,1.728,101.049,31.905,1013.765,134.500,19.100,4.000,14.412,394.54,2,-9.00,9,-9.00,0.05,4.72,148.85,25.04,247.83
AOML_Explorer,Ex0731N,211.198,30072007,4:44:37,39.131,-72.167,404.65,-9.00,1013.82,1011.90,25.25,25.43,34.511,1.695,100.721,31.905,1013.820,134.300,19.000,5.000,13.382,393.90,2,-9.00,9,-9.00,0.05,3.81,155.31,25.13,247.72
AOML_Explorer,Ex0731N,211.199,30072007,4:47:10,39.122,-72.155,405.02,-9.00,1013.84,1012.00,25.26,25.50,34.492,1.740,100.790,31.905,1013.842,134.200,19.000,7.000,13.382,395.29,2,-9.00,9,-9.00,0.06,3.97,163.22,25.11,247.28
AOML_Explorer,Ex0731N,211.201,30072007,4:49:43,39.112,-72.142,404.60,-9.00,1013.95,1012.10,25.31,25.55,34.497,1.735,100.939,31.906,1013.945,134.800,19.100,9.000,14.412,394.68,2,-9.00,9,-9.00,0.05,5.05,163.58,25.08,246.93
AOML_Explorer,Ex0731N,211.203,30072007,4:52:16,39.103,-72.130,404.65,-9.00,1013.92,1012.10,25.32,25.58,34.530,1.747,100.849,31.904,1013.921,134.100,19.100,7.000,14.412,395.23,2,-9.00,9,-9.00,0.05,4.89,158.02,25.1,246.61
AOML_Explorer,Ex0731N,211.205,30072007,4:54:49,39.093,-72.117,405.29,-9.00,1013.91,1012.00,25.41,25.48,34.534,1.620,100.705,31.901,1013.906,134.400,19.100,7.000,13.897,392.66,2,-9.00,9,-9.00,0.06,4.43,161.43,25.13,246.87
AOML_Explorer,Ex0731N,211.207,30072007,4:57:22,39.084,-72.105,406.23,-9.00,1013.95,1012.10,25.37,25.65,34.487,1.635,100.894,31.898,1013.952,134.800,18.900,8.000,14.926,397.02,2,-9.00,9,-9.00,0.05,5.51,159.04,25.1,246.99
AOML_Explorer,Ex0731N,211.208,30072007,4:59:55,39.074,-72.093,406.29,-9.00,1013.71,1012.10,25.37,25.67,34.504,1.753,100.813,31.896,1013.710,134.600,19.000,10.000,14.926,397.14,2,-9.00,9,-9.00,0.05,5.61,163.68,25.15,246.99
AOML_Explorer,Ex0731N,211.223,30072007,5:21:40,38.999,-72.008,403.41,-9.00,1013.67,1012.10,25.47,25.78,34.477,1.728,100.684,31.946,1013.673,0.000,0.000,11.000,14.926,394.60,2,-9.00,9,-9.00,0.06,5.49,166.21,25.06,246.29
AOML_Explorer,Ex0731N,211.225,30072007,5:24:13,38.999,-72.008,404.80,-9.00,1013.64,1012.00,25.49,25.76,34.509,1.698,100.723,31.948,1013.643,0.000,0.000,8.000,14.926,395.21,2,-9.00,9,-9.00,0.06,5.30,159.07,25.08,246.18
AOML_Explorer,Ex0731N,211.227,30072007,5:26:46,38.999,-72.008,406.19,-9.00,1013.62,1011.90,25.58,25.70,34.522,1.696,100.775,31.946,1013.623,0.000,0.000,9.000,14.412,394.18,2,-9.00,9,-9.00,0.06,4.84,163.68,25.11,245.83
AOML_Explorer,Ex0731N,211.229,30072007,5:29:19,38.999,-72.008,407.46,-9.00,1013.64,1012.00,25.54,25.77,34.533,1.722,100.776,31.946,1013.637,0.000,0.000,9.000,14.412,397.09,2,-9.00,9,-9.00,0.06,4.82,163.50,25.08,245.69
AOML_Explorer,Ex0731N,211.230,30072007,5:31:52,38.951,-71.942,407.78,-9.00,1013.70,1012.00,25.54,25.81,34.554,1.702,99.602,31.942,1013.702,0.000,0.000,6.000,13.897,398.17,2,-9.00,9,-9.00,0.05,4.13,155.55,25.11,245.41
AOML_Explorer,Ex0731N,211.232,30072007,5:34:25,38.941,-71.929,407.93,-9.00,1013.66,1011.90,25.59,25.32,34.655,1.701,100.699,31.941,1013.662,0.000,0.000,7.000,13.382,389.53,2,-9.00,9,-9.00,0.05,3.65,161.63,25.18,245.66
AOML_Explorer,Ex0731N,211.234,30072007,5:36:58,38.932,-71.917,408.41,-9.00,1013.69,1012.00,25.42,25.70,34.652,1.700,100.734,31.939,1013.686,0.000,0.000,6.000,13.897,399.10,2,-9.00,9,-9.00,0.05,4.09,155.71,25.1,245.43
AOML_Explorer,Ex0731N,211.236,30072007,5:39:31,38.920,-71.906,406.41,-9.00,1013.67,1012.00,25.40,25.75,34.664,1.714,100.776,31.937,1013.672,0.000,0.000,9.000,13.897,398.26,2,-9.00,9,-9.00,0.06,4.28,163.82,25.12,245.08
AOML_Explorer,Ex0731N,211.238,30072007,5:42:04,38.913,-71.893,406.41,-9.00,1013.69,1012.00,25.54,25.79,34.666,1.698,97.514,31.933,1013.686,0.000,0.000,8.000,13.897,396.43,2,-9.00,9,-9.00,0.06,4.33,160.99,25.09,244.91
AOML_Explorer,Ex0731N,211.239,30072007,5:44:37,38.901,-71.882,407.40,-9.00,1013.65,1012.00,25.57,25.74,34.676,1.623,100.806,31.926,1013.649,0.000,0.000,7.000,14.412,396.26,2,-9.00,9,-9.00,0.05,4.81,156.59,25.12,244.80
AOML_Explorer,Ex0731N,211.241,30072007,5:47:10,38.893,-71.870,408.02,-9.00,1013.70,1011.90,25.59,25.76,34.638,1.664,100.819,31.922,1013.702,0.000,0.000,7.000,13.897,396.77,2,-9.00,9,-9.00,0.06,4.34,158.81,25.1,244.53
AOML_Explorer,Ex0731N,211.243,30072007,5:49:43,38.883,-71.858,408.38,-9.00,1013.69,1011.90,25.56,25.82,34.640,1.642,100.825,31.920,1013.694,0.000,0.000,6.000,13.382,398.42,2,-9.00,9,-9.00,0.05,3.90,157.97,25.09,244.43
AOML_Explorer,Ex0731N,211.245,30072007,5:52:16,38.874,-71.847,408.59,-9.00,1013.73,1012.00,25.59,25.82,34.671,1.654,100.782,31.917,1013.728,0.000,0.000,7.000,13.382,398.36,2,-9.00,9,-9.00,0.05,3.97,161.62,25.18,244.10
AOML_Explorer,Ex0731N,211.246,30072007,5:54:49,38.870,-71.844,408.57,-9.00,1013.74,1012.00,25.60,25.89,34.689,1.621,100.803,31.915,1013.744,0.000,0.000,6.000,13.382,399.13,2,-9.00,9,-9.00,0.05,3.87,157.32,25.11,243.78
AOML_Explorer,Ex0731N,211.248,30072007,5:57:22,38.870,-71.844,408.51,-9.00,1013.71,1012.00,25.61,25.95,34.724,1.635,101.551,31.911,1013.712,0.000,0.000,8.000,13.897,399.91,2,-9.00,9,-9.00,0.05,4.40,161.78,25.15,243.50
AOML_Explorer,Ex0731N,211.250,30072007,5:59:55,38.870,-71.844,408.42,-9.00,1013.69,1012.00,25.71,25.95,34.776,1.645,100.859,31.909,1013.695,0.000,0.000,10.000,13.897,398.12,2,-9.00,9,-9.00,0.06,4.48,167.39,25.11,242.82
AOML_Explorer,Ex0731N,211.265,30072007,6:21:40,38.870,-71.844,400.99,-9.00,1013.60,1011.90,25.54,25.86,35.427,1.666,100.641,31.957,1013.603,0.000,0.000,8.000,13.382,392.26,2,-9.00,9,-9.00,0.05,3.89,161.50,25.09,238.06
AOML_Explorer,Ex0731N,211.267,30072007,6:24:13,38.870,-71.844,401.60,-9.00,1013.57,1011.90,25.63,26.06,35.428,1.651,100.632,31.956,1013.570,0.000,0.000,14.000,13.897,394.62,2,-9.00,9,-9.00,0.04,4.89,176.56,25.11,237.65
AOML_Explorer,Ex0731N,211.269,30072007,6:26:46,38.870,-71.844,402.22,-9.00,1013.54,1011.80,25.71,26.02,35.414,1.653,100.615,31.954,1013.540,0.000,0.000,11.000,13.382,393.14,2,-9.00,9,-9.00,0.05,4.08,170.09,25.1,237.53
AOML_Explorer,Ex0731N,211.270,30072007,6:29:19,38.870,-71.844,403.64,-9.00,1013.52,1011.70,25.82,25.81,35.322,1.629,100.620,31.949,1013.516,0.000,0.000,9.000,13.897,389.24,2,-9.00,9,-9.00,0.05,4.36,162.53,25.1,237.98
AOML_Explorer,Ex0731N,211.272,30072007,6:31:52,38.719,-71.665,405.39,-9.00,1013.48,1011.80,25.75,25.65,35.319,1.612,100.614,31.944,1013.477,120.500,76.000,10.000,13.382,389.77,2,-9.00,9,-9.00,0.04,3.95,166.75,25.02,238.72
AOML_Explorer,Ex0731N,211.274,30072007,6:34:25,38.709,-71.653,406.08,-9.00,1013.44,1011.70,25.63,25.77,35.272,1.649,100.615,31.943,1013.441,121.900,65.800,5.000,13.897,394.26,2,-9.00,9,-9.00,0.05,4.10,148.47,25.03,238.83
AOML_Explorer,Ex0731N,211.276,30072007,6:36:58,38.699,-71.641,406.05,-9.00,1013.47,1011.80,25.51,25.60,35.274,1.639,100.485,31.937,1013.472,124.100,50.300,8.000,13.382,393.51,2,-9.00,9,-9.00,0.05,3.64,160.46,25.03,239.14
AOML_Explorer,Ex0731N,211.277,30072007,6:39:31,38.689,-71.629,405.86,-9.00,1013.45,1011.70,25.53,25.53,35.277,1.641,100.488,31.931,1013.446,132.300,24.600,7.000,13.382,391.89,2,-9.00,9,-9.00,0.05,3.54,156.43,25.01,239.30
AOML_Explorer,Ex0731N,211.279,30072007,6:42:04,38.679,-71.617,405.66,-9.00,1013.39,1011.70,25.42,25.62,35.284,1.616,100.676,31.924,1013.392,133.300,23.000,8.000,13.382,394.90,2,-9.00,9,-9.00,0.05,3.61,160.84,25.01,239.04
AOML_Explorer,Ex0731N,211.281,30072007,6:44:37,38.669,-71.605,405.03,-9.00,1013.35,1011.60,25.42,25.60,35.270,1.638,100.669,31.917,1013.349,134.300,21.900,5.000,13.382,393.91,2,-9.00,9,-9.00,0.05,3.43,149.65,24.99,239.10